This is the latest recevied weather packets stored in our database for station/object KE8KMM. If no packets are shown the sender has not sent any weather packets the latest 10 day(s).
| Time | Temp. | Humidity | Pressure | Rain* | Wind** | Luminosity | Snow |
|---|---|---|---|---|---|---|---|
| 1777649520 | 7.78° C | 87% | 1011.1 hPa | 1.27 mm | - | 49 W/m² | - |
| 1777649216 | 7.78° C | 86% | 1011.6 hPa | 1.27 mm | - | 46 W/m² | - |
| 1777648913 | 7.78° C | 86% | 1011.9 hPa | 0 mm | - | 70 W/m² | - |
| 1777648610 | 7.78° C | 85% | 1011.7 hPa | 1.78 mm | - | 76 W/m² | - |
| 1777648307 | 7.78° C | 83% | 1011.6 hPa | 1.78 mm | - | 72 W/m² | - |
| 1777648003 | 8.33° C | 83% | 1011.6 hPa | 0 mm | - | 50 W/m² | - |
| 1777647700 | 8.33° C | 81% | 1011.7 hPa | 0 mm | - | 50 W/m² | - |
| 1777647395 | 8.33° C | 82% | 1011.6 hPa | 0 mm | - | 56 W/m² | - |
| 1777647094 | 8.33° C | 81% | 1011.3 hPa | 0 mm | - | 54 W/m² | - |
| 1777646789 | 8.33° C | 81% | 1011.4 hPa | 0 mm | - | 59 W/m² | - |
| 1777646484 | 8.33° C | 81% | 1011.4 hPa | 0 mm | - | 75 W/m² | - |
| 1777646181 | 9.44° C | 80% | 1011.4 hPa | 0 mm | - | 91 W/m² | - |
| 1777645879 | 8.89° C | 80% | 1011.6 hPa | 0 mm | - | 104 W/m² | - |
| 1777645575 | 8.33° C | 82% | 1011.7 hPa | 0 mm | - | 303 W/m² | - |
| 1777645272 | 8.33° C | 80% | 1011.7 hPa | 0 mm | - | 108 W/m² | - |
| 1777644967 | 8.33° C | 80% | 1011.6 hPa | 0 mm | - | 58 W/m² | - |
| 1777644666 | 8.89° C | 80% | 1011.8 hPa | 0 mm | - | 111 W/m² | - |
| 1777644361 | 8.33° C | 81% | 1012.1 hPa | 0 mm | - | 209 W/m² | - |
| 1777644057 | 7.78° C | 79% | 1012.1 hPa | 0 mm | - | 119 W/m² | - |
| 1777643754 | 8.33° C | 79% | 1012 hPa | 0 mm | - | 95 W/m² | - |
| 1777643452 | 8.33° C | 80% | 1012 hPa | 0 mm | - | 170 W/m² | - |
| 1777643148 | 8.33° C | 78% | 1012 hPa | 0 mm | - | 201 W/m² | - |
| 1777642845 | 7.78° C | 79% | 1011.9 hPa | 0 mm | - | 134 W/m² | - |
| 1777642542 | 7.78° C | 79% | 1011.9 hPa | 0 mm | - | 94 W/m² | - |
| 1777642238 | 7.22° C | 78% | 1011.9 hPa | 0 mm | - | 91 W/m² | - |
* Rain latest hour (hover to see other rain measurements)
** Current wind speed in m/s (hover to see current wind gust speed)